Regional Weather Roundup
Issued by NWS

Home | Current Version | Previous Version | Text Only | Print | Product List | Glossary Off
Versions: 1 2 3 4 5 6 7 8 9 10 11 12 13 14 15 16 17 18 19 20 21 22 23 24 25 26 27 28 29 30 31 32 33 34 35 36 37 38 39 40 41 42 43 44 45 46 47 48 49 50

000
ASUS43 KTOP 300659
RWRKS

WEATHER ROUNDUP FOR KANSAS
NATIONAL WEATHER SERVICE GOODLAND KS
200 AM CDT SUN AUG 30 2015

NOTE:  "FAIR" INDICATES FEW OR NO CLOUDS BELOW 12,000 FEET WITH NO
SIGNIFICANT WEATHER AND/OR OBSTRUCTIONS TO VISIBILITY.

KSZ001>006-013>018-027>032-041>047-300800-
NORTHWEST KANSAS

CITY           SKY/WX    TMP DP  RH WIND       PRES   REMARKS
GOODLAND       CLEAR     63  48  58 S12       30.11F
HAYS           CLEAR     59  52  77 CALM      30.07S
HILL CITY      CLEAR     62  58  86 CALM      30.08S
RUSSELL        CLEAR     58  58 100 S8        30.05S
$$

KSZ061>065-074>080-084>089-300800-
SOUTHWEST KANSAS

CITY           SKY/WX    TMP DP  RH WIND       PRES   REMARKS
DODGE CITY     CLEAR     61  56  83 S6        30.09S
ELKHART          N/A     68  49  50 S8          N/A
GARDEN CITY    CLEAR     64  55  72 S5        30.09S
GREAT BEND       N/A     59  54  82 CALM      30.07S VSB 1/2
LIBERAL        CLEAR     61  52  72 SW5       30.11S
PRATT          CLEAR     61  59  94 CALM      30.08S
$$

KSZ066>073-081>083-090>101-300800-
SOUTHEAST KANSAS

CITY           SKY/WX    TMP DP  RH WIND       PRES   REMARKS
CHANUTE        MOCLDY    67  66  97 N5        30.02F
COFFEYVILLE    CLEAR     67  65  93 NW3       30.00F
HUTCHINSON     FOG       57  54  89 CALM      30.06S VSB 1
NEWTON         CLEAR     61  55  82 E3        30.07S
PARSONS        CLEAR     67  66  97 N3        30.01F
WICHITA INTL   CLEAR     65  60  84 NE3       30.03F
WICHITA JABRA  CLEAR     61  60  97 NE3       30.03F
$$

KSZ007>012-019>026-033>040-048>060-102>105-300800-
NORTHEAST KANSAS

CITY           SKY/WX    TMP DP  RH WIND       PRES   REMARKS
CONCORDIA      FOG       57  56  96 CALM      30.06S VSB 1
EMPORIA        CLEAR     62  61  96 NE6       30.04S FOG
LAWRENCE       MOCLDY    65  64  97 CALM      30.03F
MANHATTAN      CLOUDY    64  63  96 CALM      30.05S FOG
OLATHE IND     PTCLDY    66  65  96 NW5       30.04F
OLATHE EXE     PTCLDY    67  65  93 N5        30.02F
SALINA         CLEAR     62  59  90 CALM      30.05F
TOPEKA BILLARD CLEAR     64  62  93 CALM      30.04F
TOPEKA FORBES  CLEAR     66  63  90 CALM      30.04F
$$


USA.gov is the U.S. government's official web portal to all federal, state and local government web resources and services.